[[{"header":{"parameterUnit":"m.s-1","parameterCategory":2,"la1":30.2991,"la2":30.254,"lo1":-89.0895,"lo2":-89.0444,"dy":0.0017,"dx":0.0017,"nx":28,"ny":28,"refTime":"2024-12-20T09:00:00:Z","depth":"0","parameterNumber":2,"parameterNumberName":"U-component_of_CURRENTS"},"data":[0,0,0,0,0,0,0,0,0,0,0,0,0,0,0,0,0,0,0,0,0,0,0,0,0,0,0,0,0,0,0,0,0,0,0,0,0,0,0,0,0,0,0,0,0,0,0,0,0,0,0,0,0,0,0,0,0,0,0.2391,0.2392,0,0.2434,0.2434,0.2435,0.2435,0.2435,0.2435,0.2435,0.2413,0.2413,0.2413,0,0,0,0,0,0,0,0,0,0,0,0,0,0.2333,0.2334,0.2391,0.2392,0.2393,0.2434,0.2434,0.2435,0.2435,0.2435,0.2435,0.2434,0.2413,0.2413,0.2413,0,0,0,0,0,0,0,0,0,0,0,0,0,0.2362,0.2334,0.2391,0.2401,0.2402,0.2434,0.2434,0.2435,0.2435,0.2435,0.2435,0.2434,0.2414,0.2413,0.2412,0.2416,0,0,0.2411,0.2411,0,0,0,0,0,0,0,0,0.2361,0.2364,0.2398,0.24,0.2402,0.2432,0.2407,0.2426,0.2435,0.2419,0.2434,0.2434,0.2416,0.2415,0.242,0.2415,0.2414,0.2411,0.241,0.241,0.241,0,0,0,0,0,0,0,0.2358,0.2362,0.2404,0.2399,0.2402,0.2412,0.2415,0.241,0.2415,0.242,0.2421,0.2432,0.2416,0.2421,0.2419,0.2413,0.2411,0.241,0.241,0.241,0.2442,0.2443,0,0,0,0,0,0,0.236,0.236,0.2403,0.2406,0.2384,0.2413,0.2416,0.242,0.2416,0.2417,0.2432,0.2432,0.2422,0.242,0.2419,0.2435,0.241,0.241,0.2409,0.244,0.2442,0.2443,0,0,0,0,0,0,0.2358,0.2363,0.2402,0.2387,0.2393,0.2414,0.2418,0.2421,0.2426,0.2427,0.2425,0.2436,0.2421,0.2419,0.2431,0.2434,0.2409,0.2409,0.2439,0.2441,0.2442,0.246,0,0,0,0,0,0,0.2356,0.2362,0.2362,0.2387,0.2394,0.2417,0.2419,0.2422,0.2435,0.2435,0.2429,0.2427,0.2421,0.2432,0.243,0.2433,0.2408,0.2438,0.244,0.2442,0.2458,0.2462,0.2466,0,0,0,0,0,0.2354,0.2356,0.2362,0.2367,0.2395,0.2418,0.2422,0.2434,0.2436,0.2437,0.2447,0.2427,0.2444,0.2433,0.243,0.2432,0.2436,0.2439,0.2442,0.2456,0.2461,0.2466,0,0,0,0,0,0,0.2329,0.2358,0.2364,0.2374,0.2394,0.2419,0.2425,0.2435,0.2445,0.2447,0.2442,0.2441,0.2454,0.2446,0.2433,0.2452,0.2437,0.244,0.2449,0.2454,0.2458,0.2473,0.2408,0,0,0,0,0,0.2326,0.2335,0.2363,0.2371,0.2381,0.2403,0.2414,0.2426,0.2442,0.2446,0.2444,0.245,0.2464,0.2461,0.2469,0.2473,0.2481,0.2475,0.2479,0.2482,0.2496,0.2525,0.2533,0.2452,0.2452,0.2452,0,0,0.232,0.2337,0.2342,0.2367,0.2383,0.2403,0.2408,0.2428,0.2446,0.2442,0.2455,0.2463,0.2472,0.2486,0.2489,0.2476,0.2508,0.2486,0.2488,0.25,0.2529,0.2537,0.2544,0.2454,0.2453,0.2453,0,0,0.2317,0.2326,0.2336,0.2356,0.2386,0.2402,0.2409,0.2434,0.2443,0.2462,0.2474,0.2493,0.2492,0.251,0.2518,0.2549,0.2534,0.2542,0.2563,0.2591,0.2598,0.2604,0.2611,0.2618,0.2536,0.2536,0.2536,0,0.2309,0.2323,0.2342,0.2362,0.2379,0.2402,0.2419,0.2438,0.2464,0.2477,0.2467,0.2508,0.2509,0.2548,0.2563,0.2557,0.2564,0.2539,0.2595,0.2602,0.2608,0.2614,0.2621,0.2537,0.2537,0.2537,0.2536,0,0.2317,0.2331,0.2339,0.2371,0.2391,0.2409,0.2443,0.2457,0.2467,0.249,0.2525,0.254,0.2563,0.2566,0.2573,0.2619,0.2607,0.2601,0.258,0.2617,0.2621,0.2628,0.2538,0.2538,0.2538,0.2537,0,0,0.2285,0.2334,0.2336,0.2352,0.2397,0.2413,0.2446,0.248,0.2507,0.2526,0.2559,0.2593,0.2605,0.2618,0.2628,0.2654,0.2697,0.2645,0.2646,0.2647,0.2746,0.2679,0.268,0.2698,0.2699,0.2701,0.2727,0,0.2281,0.2311,0.2341,0.2371,0.2387,0.2424,0.2453,0.2493,0.2521,0.2558,0.2591,0.2628,0.2624,0.2639,0.2667,0.2701,0.2719,0.2689,0.2717,0.2718,0.2648,0.2687,0.2575,0.2585,0.2734,0.2735,0.2736,0,0.2271,0.2295,0.2319,0.2369,0.238,0.2404,0.2452,0.2485,0.2552,0.2579,0.2625,0.2654,0.2711,0.2695,0.2761,0.2742,0.2749,0.2763,0.2764,0.2704,0.2664,0.2577,0.2592,0.2528,0.2747,0.2746,0.2745,0,0.2226,0.2276,0.2291,0.2309,0.2371,0.2388,0.242,0.2485,0.2523,0.2598,0.2632,0.2698,0.2731,0.2766,0.2796,0.2783,0.2859,0.2838,0.278,0.2774,0.2688,0.2671,0.264,0.2879,0.2879,0.2879,0.2878,0,0.2203,0.2215,0.2271,0.228,0.2306,0.236,0.2399,0.2445,0.2523,0.257,0.2638,0.2684,0.2753,0.2799,0.2816,0.2822,0.287,0.2797,0.2785,0.2688,0.2672,0.2618,0.2598,0.2879,0.2879,0.2879,0.2879,0,0.215,0.2185,0.2207,0.2266,0.2284,0.2302,0.2382,0.2415,0.2494,0.2556,0.2583,0.269,0.2747,0.2797,0.286,0.2834,0.2773,0.2839,0.2711,0.2683,0.2543,0.2528,0.2427,0.2358,0.2774,0.2772,0.2771,0,0.2125,0.2131,0.2184,0.2197,0.2222,0.2262,0.2292,0.2385,0.2429,0.2549,0.2576,0.2663,0.2713,0.2781,0.2769,0.2779,0.272,0.266,0.2613,0.2529,0.2505,0.2431,0.2375,0.2503,0.25,0.2497,0.2495,0,0.2081,0.2099,0.212,0.2144,0.2171,0.2205,0.2257,0.2294,0.2397,0.2454,0.2538,0.2593,0.2658,0.2628,0.2634,0.2626,0.2527,0.2602,0.2557,0.2328,0.2206,0.2134,0.2485,0.2471,0.2473,0.2475,0.2476,0.2477,0.2044,0.2045,0.207,0.2086,0.2112,0.2131,0.2137,0.2203,0.2258,0.2314,0.2428,0.2449,0.248,0.2481,0.2459,0.2336,0.2356,0.2253,0.2255,0.2197,0.2087,0.2374,0.2319,0.2321,0.2322,0.2323,0.2324,0,0.1993,0.1998,0.2012,0.2025,0.2018,0.2057,0.2096,0.2088,0.2108,0.2173,0.2223,0.2217,0.2186,0.2193,0.2113,0.2012,0.1936,0.1951,0.1835,0.1808,0.2101,0.2047,0.1877,0.1877,0.1877,0.1877,0.1877,0.1877,0.1967,0.1951,0.1954,0.192,0.1927,0.1889,0.189,0.1888,0.1912,0.1887,0.1865,0.19,0.1984,0.1963,0.1849,0.1799,0.1669,0.1575,0.1596,0.1822,0.185,0.1877,0.1821,0.1607,0.1607,0.122,0.1218,0.1215]},{"header":{"parameterUnit":"m.s-1","parameterCategory":2,"la1":30.2991,"la2":30.254,"lo1":-89.0895,"lo2":-89.0444,"dy":0.0017,"dx":0.0017,"nx":28,"ny":28,"refTime":"2024-12-20T09:00:00:Z","depth":"0","parameterNumber":3,"parameterNumberName":"V-component_of_CURRENTS"},"data":[0,0,0,0,0,0,0,0,0,0,0,0,0,0,0,0,0,0,0,0,0,0,0,0,0,0,0,0,0,0,0,0,0,0,0,0,0,0,0,0,0,0,0,0,0,0,0,0,0,0,0,0,0,0,0,0,0,0,-0.0158,-0.0158,0,-0.0209,-0.021,-0.0211,-0.0247,-0.0247,-0.0248,-0.0248,-0.0293,-0.0294,-0.0294,0,0,0,0,0,0,0,0,0,0,0,0,0,-0.0128,-0.0128,-0.0158,-0.0159,-0.0159,-0.0209,-0.021,-0.0211,-0.0247,-0.0247,-0.0248,-0.0248,-0.0292,-0.0293,-0.0295,0,0,0,0,0,0,0,0,0,0,0,0,0,-0.0156,-0.0128,-0.0158,-0.0183,-0.0186,-0.0209,-0.021,-0.0211,-0.0247,-0.0247,-0.0248,-0.0248,-0.0292,-0.0293,-0.0295,-0.0294,0,0,-0.0299,-0.0299,0,0,0,0,0,0,0,0,-0.0154,-0.0157,-0.0179,-0.0182,-0.0185,-0.0222,-0.0216,-0.0238,-0.0247,-0.0224,-0.0248,-0.0248,-0.0268,-0.0272,-0.028,-0.0296,-0.0298,-0.0299,-0.03,-0.03,-0.0301,0,0,0,0,0,0,0,-0.0152,-0.0155,-0.0178,-0.018,-0.0183,-0.0205,-0.0209,-0.0221,-0.0242,-0.0226,-0.0228,-0.0234,-0.027,-0.0279,-0.0281,-0.0298,-0.0299,-0.03,-0.0301,-0.0302,-0.0323,-0.0322,0,0,0,0,0,0,-0.0144,-0.0153,-0.0176,-0.018,-0.0171,-0.0205,-0.021,-0.021,-0.0242,-0.0248,-0.0234,-0.0236,-0.0276,-0.028,-0.0283,-0.0274,-0.03,-0.0302,-0.0302,-0.0323,-0.0323,-0.0322,0,0,0,0,0,0,-0.0143,-0.0145,-0.0174,-0.0168,-0.0173,-0.0205,-0.0205,-0.021,-0.0216,-0.0249,-0.0255,-0.0234,-0.0277,-0.0281,-0.0295,-0.0277,-0.0302,-0.0303,-0.0323,-0.0323,-0.0322,-0.0263,0,0,0,0,0,0,-0.0141,-0.0144,-0.014,-0.0167,-0.0173,-0.0177,-0.0205,-0.0211,-0.022,-0.0223,-0.0251,-0.0256,-0.0277,-0.0293,-0.0296,-0.0279,-0.0305,-0.0324,-0.0323,-0.0323,-0.0265,-0.026,-0.0256,0,0,0,0,0,-0.014,-0.013,-0.014,-0.0143,-0.0167,-0.0176,-0.0181,-0.0205,-0.0219,-0.0214,-0.0242,-0.0255,-0.0292,-0.0294,-0.0298,-0.028,-0.0324,-0.0323,-0.0323,-0.0267,-0.0261,-0.0256,0,0,0,0,0,0,-0.0116,-0.0133,-0.0145,-0.0141,-0.0153,-0.0182,-0.0183,-0.0198,-0.0216,-0.0222,-0.0253,-0.0259,-0.0264,-0.0283,-0.0284,-0.0287,-0.0309,-0.0309,-0.0265,-0.026,-0.0256,-0.0244,-0.0306,0,0,0,0,0,-0.0108,-0.0105,-0.0125,-0.0122,-0.0126,-0.0152,-0.016,-0.0175,-0.0197,-0.0205,-0.0225,-0.0249,-0.0265,-0.0271,-0.0289,-0.0289,-0.0305,-0.0281,-0.0277,-0.0273,-0.0267,-0.028,-0.0276,-0.032,-0.032,-0.032,0,0,-0.0101,-0.0109,-0.0108,-0.0117,-0.0131,-0.0127,-0.0157,-0.0163,-0.0162,-0.0206,-0.0209,-0.0233,-0.0262,-0.0265,-0.0268,-0.0279,-0.0268,-0.0272,-0.0268,-0.0264,-0.0279,-0.0275,-0.0271,-0.032,-0.032,-0.032,0,0,-0.008,-0.0087,-0.0077,-0.0082,-0.0095,-0.0107,-0.0104,-0.0126,-0.0137,-0.0145,-0.0176,-0.0193,-0.0214,-0.0232,-0.0244,-0.0227,-0.0245,-0.0228,-0.0193,-0.0206,-0.0202,-0.0199,-0.0208,-0.0206,-0.0225,-0.0225,-0.0225,0,-0.0071,-0.0058,-0.0075,-0.0066,-0.0066,-0.0092,-0.0079,-0.0091,-0.0115,-0.0118,-0.0138,-0.0172,-0.0199,-0.0202,-0.0199,-0.0215,-0.0224,-0.0208,-0.0199,-0.0196,-0.0194,-0.0204,-0.0203,-0.0222,-0.0222,-0.0222,-0.0223,0,-0.0043,-0.0033,-0.0025,-0.002,-0.002,-0.0012,-0.0028,-0.0032,-0.0048,-0.0061,-0.007,-0.0112,-0.0131,-0.014,-0.0166,-0.0159,-0.017,-0.0191,-0.0208,-0.0186,-0.0198,-0.0198,-0.0217,-0.0219,-0.0219,-0.022,0,0,-0.0017,-0.0007,-0.0002,0.0009,0.0006,0.0011,0.0016,0.0018,0.0029,-0.0001,0.0007,-0.0029,-0.0051,-0.0067,-0.0099,-0.0113,-0.0109,-0.014,-0.0142,-0.014,-0.013,-0.0133,-0.0134,-0.0125,-0.0124,-0.0124,-0.0142,0,0.0013,0.0045,0.004,0.0073,0.009,0.0071,0.0082,0.0076,0.0069,0.0071,0.0028,0.0023,-0.0022,-0.003,-0.005,-0.0093,-0.0106,-0.0102,-0.0158,-0.016,-0.016,-0.0133,-0.0107,-0.012,-0.0142,-0.0142,-0.0141,0,0.0048,0.0066,0.0102,0.0124,0.013,0.0142,0.016,0.0167,0.016,0.015,0.0134,0.0103,0.0076,0.0031,-0.0024,-0.0017,-0.0066,-0.0104,-0.0106,-0.013,-0.0163,-0.0148,-0.0119,-0.0201,-0.0141,-0.0141,-0.0141,0,0.0083,0.0113,0.0146,0.0152,0.0169,0.0178,0.0189,0.0192,0.0212,0.0204,0.0214,0.0174,0.0158,0.0093,0.0011,-0.0004,-0.0049,-0.0083,-0.0133,-0.0134,-0.0134,-0.0135,-0.0184,-0.0122,-0.0122,-0.0122,-0.0122,0,0.0123,0.015,0.0164,0.0182,0.0225,0.0218,0.0262,0.0263,0.0278,0.0317,0.0261,0.0282,0.0173,0.0131,0.0044,-0.0033,-0.0025,-0.0117,-0.0135,-0.0112,-0.0111,-0.0202,-0.0263,-0.0123,-0.0123,-0.0123,-0.0123,0,0.0157,0.0166,0.0206,0.023,0.0243,0.0273,0.0315,0.0349,0.0351,0.0397,0.0396,0.0369,0.032,0.0209,0.011,0.002,-0.011,-0.0098,-0.0061,-0.0074,-0.0204,-0.0262,-0.0342,-0.0379,-0.0153,-0.0153,-0.0153,0,0.0177,0.0201,0.0246,0.0278,0.0291,0.0334,0.0368,0.0384,0.0431,0.0462,0.0495,0.0457,0.046,0.0314,0.015,0.0005,-0.0099,-0.0086,-0.0118,-0.0196,-0.0276,-0.032,-0.0349,-0.0093,-0.0093,-0.0093,-0.0092,0,0.0217,0.023,0.0265,0.0331,0.0374,0.043,0.0483,0.0532,0.0559,0.0611,0.0677,0.0681,0.0537,0.0415,0.0194,0.0085,-0.014,-0.0084,-0.0174,-0.0236,-0.0279,-0.0327,-0.0098,-0.009,-0.009,-0.009,-0.009,-0.009,0.0246,0.0279,0.0325,0.0391,0.0446,0.0521,0.0583,0.0656,0.0749,0.084,0.0828,0.087,0.0648,0.0368,0.02,-0.0098,-0.0123,-0.019,-0.0255,-0.0292,-0.0329,-0.0091,-0.0101,-0.0101,-0.0102,-0.0102,-0.0102,0,0.0285,0.0322,0.0384,0.0462,0.0533,0.0554,0.0659,0.0736,0.0868,0.0958,0.103,0.0957,0.0697,0.04,-0.0012,-0.0225,-0.0306,-0.0347,-0.0404,-0.0427,-0.0214,-0.0212,-0.0235,-0.0235,-0.0235,-0.0235,-0.0235,-0.0235,0.0305,0.0367,0.0399,0.052,0.0581,0.0684,0.0753,0.088,0.0977,0.1118,0.1162,0.1163,0.0923,0.0191,-0.0285,-0.0394,-0.0548,-0.0586,-0.0673,-0.0531,-0.0521,-0.0511,-0.0523,-0.061,-0.0611,-0.0838,-0.0841,-0.0843]}],[{"header":{"parameterUnit":"m.s-1","parameterCategory":2,"la1":30.2991,"la2":30.254,"lo1":-89.0895,"lo2":-89.0444,"dy":0.0017,"dx":0.0017,"nx":28,"ny":28,"refTime":"2024-12-20T09:00:00:Z","depth":"2","parameterNumber":2,"parameterNumberName":"U-component_of_CURRENTS"},"data":[0,0,0,0,0,0,0,0,0,0,0,0,0,0,0,0,0,0,0,0,0,0,0,0,0,0,0,0,0,0,0,0,0,0,0,0,0,0,0,0,0,0,0,0,0,0,0,0,0,0,0,0,0,0,0,0,0,0,0.1841,0.1842,0,0.1864,0.1864,0.1864,0.1862,0.1862,0.1862,0.1862,0.1864,0.1864,0.1864,0,0,0,0,0,0,0,0,0,0,0,0,0,0.1802,0.1802,0.1841,0.1842,0.1843,0.1864,0.1864,0.1864,0.1862,0.1862,0.1862,0.1862,0.1864,0.1864,0.1864,0,0,0,0,0,0,0,0,0,0,0,0,0,0.1818,0.1802,0.1841,0.1847,0.1848,0.1864,0.1864,0.1864,0.1862,0.1862,0.1862,0.1862,0.1864,0.1864,0.1864,0.1864,0,0,0.1864,0.1864,0,0,0,0,0,0,0,0,0.1817,0.1819,0.1846,0.1847,0.1848,0.1864,0.1851,0.1864,0.1862,0.1853,0.1862,0.1862,0.1864,0.1864,0.1863,0.1864,0.1864,0.1864,0.1864,0.1864,0.1864,0,0,0,0,0,0,0,0.1816,0.1818,0.1847,0.1846,0.1848,0.1851,0.1853,0.1853,0.1855,0.1854,0.1855,0.1863,0.1864,0.1863,0.1863,0.1864,0.1864,0.1864,0.1864,0.1864,0.1917,0.1918,0,0,0,0,0,0,0.182,0.1817,0.1846,0.1848,0.1836,0.1852,0.1854,0.1856,0.1855,0.1857,0.1863,0.1863,0.1863,0.1863,0.1863,0.1899,0.1864,0.1864,0.1864,0.1915,0.1917,0.1919,0,0,0,0,0,0,0.1819,0.1822,0.1845,0.1836,0.184,0.1853,0.1855,0.1856,0.1864,0.1864,0.1864,0.1871,0.1863,0.1863,0.1884,0.1898,0.1864,0.1864,0.1914,0.1916,0.1918,0.1949,0,0,0,0,0,0,0.1818,0.1821,0.1825,0.1836,0.1841,0.1857,0.1855,0.1857,0.1871,0.1871,0.187,0.187,0.1863,0.1884,0.1884,0.1898,0.1864,0.1912,0.1915,0.1917,0.1946,0.1951,0.1956,0,0,0,0,0,0.1816,0.1818,0.1825,0.1829,0.1845,0.1858,0.186,0.1867,0.1871,0.1873,0.1886,0.187,0.19,0.1885,0.1885,0.1899,0.1911,0.1914,0.1917,0.1943,0.195,0.1956,0,0,0,0,0,0,0.18,0.1819,0.1827,0.1834,0.1848,0.1859,0.1866,0.1873,0.1884,0.189,0.1886,0.1887,0.1908,0.1905,0.1889,0.1924,0.1904,0.1907,0.1924,0.193,0.1935,0.1937,0.1864,0,0,0,0,0,0.1801,0.1808,0.1827,0.1834,0.1844,0.1858,0.1866,0.1874,0.1887,0.1892,0.1898,0.1909,0.192,0.1927,0.1932,0.1951,0.1951,0.1962,0.1968,0.1972,0.1975,0.1996,0.2003,0.1929,0.1929,0.1929,0,0,0.1799,0.181,0.1815,0.1832,0.1845,0.1861,0.1861,0.188,0.1895,0.1891,0.1917,0.1925,0.1929,0.1952,0.1961,0.1951,0.1995,0.1976,0.1979,0.198,0.2,0.2007,0.2014,0.1931,0.193,0.193,0,0,0.1798,0.1808,0.1817,0.183,0.1856,0.1868,0.1877,0.19,0.191,0.1936,0.1942,0.1965,0.1977,0.1989,0.1994,0.2033,0.202,0.2036,0.2064,0.2085,0.209,0.2096,0.2107,0.2113,0.2041,0.2041,0.2041,0,0.1797,0.1807,0.1821,0.1835,0.1849,0.1874,0.1888,0.1906,0.1934,0.1949,0.1948,0.1991,0.1993,0.2026,0.2044,0.2043,0.2051,0.2036,0.209,0.2095,0.21,0.211,0.2116,0.2043,0.2042,0.2042,0.2042,0,0.1803,0.1815,0.1822,0.1849,0.1865,0.1881,0.1912,0.1934,0.1954,0.1976,0.2015,0.203,0.2057,0.2064,0.2064,0.2106,0.21,0.2091,0.207,0.2109,0.2118,0.2124,0.2045,0.2045,0.2044,0.2044,0,0,0.1784,0.1819,0.1822,0.1833,0.1873,0.1883,0.192,0.1954,0.1983,0.2016,0.2049,0.2081,0.2102,0.2111,0.2122,0.2143,0.2184,0.2137,0.2137,0.214,0.2229,0.2167,0.2168,0.2186,0.2187,0.2188,0.2221,0,0.1783,0.1804,0.1825,0.1849,0.1863,0.1896,0.1927,0.1966,0.2001,0.2043,0.2075,0.2111,0.2117,0.2136,0.2163,0.2183,0.2201,0.2175,0.2197,0.2197,0.2132,0.2173,0.2008,0.2019,0.2227,0.2227,0.2228,0,0.1778,0.1793,0.1813,0.1848,0.1858,0.1882,0.1932,0.1967,0.2035,0.2065,0.2117,0.2141,0.2196,0.2183,0.2243,0.2229,0.2234,0.224,0.2241,0.2176,0.2147,0.2015,0.2022,0.2238,0.2237,0.2236,0.2236,0,0.1745,0.178,0.1792,0.1804,0.1854,0.1872,0.191,0.1976,0.2014,0.2089,0.2121,0.2185,0.2222,0.2248,0.2273,0.2263,0.2322,0.2305,0.2251,0.2247,0.2106,0.2086,0.2332,0.2332,0.2332,0.2332,0.2332,0,0.1726,0.1735,0.178,0.1785,0.1812,0.1859,0.1903,0.1951,0.203,0.2073,0.2139,0.2176,0.2241,0.2278,0.2289,0.2296,0.2338,0.2263,0.2255,0.2112,0.2094,0.228,0.2274,0.2333,0.2333,0.2333,0.2332,0,0.1687,0.1714,0.1731,0.178,0.1796,0.1821,0.1897,0.1931,0.2014,0.2072,0.2096,0.219,0.2238,0.2281,0.2326,0.231,0.2319,0.2301,0.2127,0.2097,0.2224,0.2219,0.2249,0.2247,0.2245,0.2244,0.2243,0,0.1667,0.1672,0.1716,0.1727,0.175,0.1795,0.1827,0.1917,0.1958,0.2065,0.2087,0.2161,0.2193,0.2252,0.2238,0.2241,0.2287,0.2077,0.2022,0.2228,0.2218,0.2215,0.2212,0.1851,0.1846,0.1843,0.184,0,0.1632,0.165,0.1663,0.1687,0.1714,0.174,0.1795,0.1822,0.1919,0.1965,0.2024,0.2059,0.2122,0.2058,0.207,0.2048,0.2065,0.2005,0.2274,0.1896,0.1855,0.1844,0.1854,0.181,0.1813,0.1815,0.1817,0.1818,0.1605,0.1604,0.1623,0.1636,0.1663,0.167,0.1667,0.1719,0.1756,0.1797,0.1896,0.1892,0.1924,0.1858,0.1804,0.1763,0.1902,0.1813,0.1823,0.1837,0.1783,0.1742,0.1665,0.1667,0.1669,0.1671,0.1672,0,0.156,0.1562,0.157,0.1574,0.1565,0.1607,0.1627,0.1598,0.1592,0.1655,0.1687,0.156,0.1528,0.1556,0.145,0.145,0.1432,0.1386,0.1348,0.138,0.1409,0.1332,0.1095,0.1093,0.1091,0.1089,0,0,0.1537,0.1515,0.1511,0.1468,0.1474,0.1429,0.142,0.1385,0.1397,0.1362,0.1353,0.147,0.1521,0.1288,0.1261,0.1158,0.1259,0.1114,0.1582,0.1571,0.1596,0.1666,0.1586,0,0,0,0,0]},{"header":{"parameterUnit":"m.s-1","parameterCategory":2,"la1":30.2991,"la2":30.254,"lo1":-89.0895,"lo2":-89.0444,"dy":0.0017,"dx":0.0017,"nx":28,"ny":28,"refTime":"2024-12-20T09:00:00:Z","depth":"2","parameterNumber":3,"parameterNumberName":"V-component_of_CURRENTS"},"data":[0,0,0,0,0,0,0,0,0,0,0,0,0,0,0,0,0,0,0,0,0,0,0,0,0,0,0,0,0,0,0,0,0,0,0,0,0,0,0,0,0,0,0,0,0,0,0,0,0,0,0,0,0,0,0,0,0,0,0.0155,0.0154,0,0.0121,0.0121,0.012,0.0098,0.0097,0.0097,0.0097,0.0052,0.0052,0.0051,0,0,0,0,0,0,0,0,0,0,0,0,0,0.0167,0.0167,0.0155,0.0154,0.0154,0.0121,0.0121,0.012,0.0098,0.0097,0.0097,0.0097,0.0053,0.0052,0.005,0,0,0,0,0,0,0,0,0,0,0,0,0,0.0151,0.0167,0.0155,0.0138,0.0137,0.0121,0.0121,0.012,0.0098,0.0097,0.0097,0.0097,0.0053,0.0052,0.005,0.0046,0,0,0.0046,0.0045,0,0,0,0,0,0,0,0,0.0152,0.015,0.0141,0.014,0.0137,0.0113,0.0109,0.0095,0.0098,0.0113,0.0097,0.0097,0.0072,0.0069,0.0063,0.0044,0.0042,0.0045,0.0045,0.0044,0.0043,0,0,0,0,0,0,0,0.0153,0.0151,0.0142,0.0141,0.0138,0.0122,0.0119,0.0106,0.0094,0.0111,0.011,0.0106,0.0071,0.0065,0.0062,0.0042,0.0046,0.0044,0.0043,0.0043,0.0009,0.0009,0,0,0,0,0,0,0.0159,0.0153,0.0143,0.0141,0.0144,0.0122,0.0119,0.0121,0.0094,0.009,0.0106,0.0105,0.0068,0.0064,0.0061,0.006,0.0044,0.0042,0.0042,0.0009,0.0009,0.0009,0,0,0,0,0,0,0.0159,0.0158,0.0144,0.0145,0.0142,0.0122,0.0124,0.0121,0.0113,0.009,0.0086,0.0101,0.0067,0.0063,0.0051,0.0058,0.0042,0.004,0.0009,0.0009,0.0009,0.0056,0,0,0,0,0,0,0.016,0.0159,0.0162,0.0146,0.0142,0.0141,0.0125,0.012,0.0111,0.0109,0.0085,0.0081,0.0067,0.0053,0.0049,0.0056,0.0039,0.0009,0.0009,0.0009,0.0054,0.0057,0.006,0,0,0,0,0,0.0161,0.0171,0.0163,0.0161,0.0148,0.0142,0.0139,0.0123,0.0111,0.0113,0.0095,0.0081,0.005,0.0052,0.0047,0.0054,0.0009,0.0009,0.0009,0.0053,0.0057,0.006,0,0,0,0,0,0,0.0177,0.0169,0.016,0.0166,0.0156,0.0138,0.0138,0.0124,0.0111,0.0107,0.0083,0.0078,0.007,0.0053,0.0055,0.0042,0.0027,0.0026,0.0061,0.0065,0.0068,0.0083,0.0038,0,0,0,0,0,0.0182,0.0188,0.0174,0.0178,0.0175,0.0155,0.0149,0.0139,0.0125,0.0118,0.0099,0.0079,0.0066,0.0059,0.0044,0.0039,0.0022,0.0038,0.0041,0.0043,0.0052,0.0033,0.0035,0.0009,0.0009,0.0009,0,0,0.0188,0.0184,0.0186,0.0182,0.0172,0.0177,0.0151,0.0148,0.015,0.0116,0.011,0.0088,0.0066,0.0061,0.0056,0.0049,0.0041,0.0043,0.0046,0.0053,0.0033,0.0036,0.0038,0.0009,0.0009,0.0009,0,0,0.0206,0.0201,0.0212,0.0209,0.02,0.0191,0.0191,0.0173,0.0164,0.0155,0.0132,0.0116,0.0092,0.0082,0.0073,0.0082,0.0057,0.0072,0.0102,0.0083,0.0086,0.0088,0.0068,0.0068,0.0075,0.0075,0.0075,0,0.0212,0.0227,0.0213,0.0225,0.0227,0.0201,0.0215,0.0204,0.0182,0.0179,0.016,0.0126,0.0105,0.0104,0.0106,0.009,0.0074,0.0093,0.0089,0.009,0.0091,0.0071,0.007,0.0077,0.0077,0.0076,0.0076,0,0.024,0.0251,0.0258,0.0267,0.0267,0.0275,0.0261,0.0254,0.0235,0.0224,0.021,0.0177,0.0159,0.0147,0.013,0.0128,0.0111,0.0095,0.0084,0.0097,0.0074,0.0073,0.008,0.0079,0.0079,0.0078,0,0,0.0259,0.0276,0.0278,0.0293,0.0292,0.0299,0.03,0.03,0.031,0.0275,0.028,0.0248,0.0224,0.0212,0.0183,0.0166,0.0155,0.0137,0.0135,0.0126,0.0113,0.0102,0.0098,0.0137,0.0137,0.0137,0.0094,0,0.0285,0.0321,0.0319,0.0352,0.037,0.0354,0.0361,0.0356,0.0346,0.0343,0.0302,0.0296,0.0251,0.0243,0.0218,0.0174,0.0153,0.0168,0.0095,0.0093,0.0088,0.0097,0.0112,0.0075,0.0092,0.0092,0.0092,0,0.0315,0.0337,0.0375,0.0402,0.0408,0.042,0.0435,0.0441,0.0429,0.0419,0.0399,0.0367,0.0335,0.0294,0.0223,0.0234,0.0179,0.0139,0.0136,0.011,0.0079,0.0063,0.0071,0.0088,0.0089,0.0089,0.0089,0,0.0343,0.0377,0.0411,0.0421,0.0443,0.0452,0.0461,0.0462,0.0482,0.047,0.0478,0.043,0.0409,0.0334,0.0243,0.0233,0.0163,0.0138,0.0075,0.0074,0.0066,0.0063,0.0089,0.0089,0.0089,0.009,0.009,0,0.0377,0.0404,0.0427,0.0448,0.0489,0.0488,0.0532,0.0529,0.0543,0.0577,0.0521,0.0531,0.0418,0.036,0.0267,0.017,0.0178,0.0086,0.0065,0.0081,0.0081,0.0075,0.0074,0.0088,0.0088,0.0089,0.0089,0,0.0402,0.0416,0.0461,0.0492,0.0504,0.0533,0.0581,0.0617,0.0616,0.0655,0.0652,0.0609,0.0534,0.0416,0.0301,0.0211,0.0113,0.0074,0.01,0.0083,0.0028,0.0029,0.0002,0.0001,0.0001,0.0,-0.0,0,0.0419,0.0443,0.0496,0.0528,0.0543,0.059,0.0626,0.0648,0.0694,0.0708,0.0732,0.0671,0.0643,0.0466,0.0299,0.0138,0.0113,0.0043,0.0027,0.0038,0.002,0.0023,0.0025,0.003,0.003,0.003,0.003,0,0.0451,0.0467,0.0505,0.0571,0.0617,0.0681,0.0734,0.0782,0.0811,0.0841,0.0868,0.0845,0.0673,0.0515,0.0289,0.0181,0.0069,0.0035,0.0044,0.0052,0.0062,0.0045,0.0047,0.0029,0.0029,0.0029,0.0029,0.0029,0.0474,0.0506,0.0556,0.062,0.0677,0.0757,0.0821,0.0884,0.0956,0.1001,0.0973,0.0934,0.0745,0.046,0.0264,0.0057,0.0069,-0.0006,-0.0004,-0.0003,0.0011,0.0019,-0.002,-0.002,-0.002,-0.002,-0.002,0,0.0503,0.0541,0.0603,0.0682,0.0753,0.0779,0.0884,0.095,0.1041,0.1063,0.1079,0.0898,0.0712,0.0489,0.0182,0.0004,-0.0008,-0.0053,-0.0031,-0.0028,-0.0026,-0.0013,-0.0051,-0.0051,-0.0052,-0.0052,0,0,0.0519,0.0579,0.0611,0.0728,0.0788,0.0892,0.0959,0.1048,0.1093,0.1124,0.1093,0.1041,0.077,0.0542,0.0298,0.0119,0.0088,0.0087,0.0132,0.0191,0.0195,0.0024,0.005,0,0,0,0,0]}],[{"header":{"parameterUnit":"m.s-1","parameterCategory":2,"la1":30.2991,"la2":30.254,"lo1":-89.0895,"lo2":-89.0444,"dy":0.0017,"dx":0.0017,"nx":28,"ny":28,"refTime":"2024-12-20T09:00:00:Z","depth":"4","parameterNumber":2,"parameterNumberName":"U-component_of_CURRENTS"},"data":[0,0,0,0,0,0,0,0,0,0,0,0,0,0,0,0,0,0,0,0,0,0,0,0,0,0,0,0,0,0,0,0,0,0,0,0,0,0,0,0,0,0,0,0,0,0,0,0,0,0,0,0,0,0,0,0,0,0,0.0969,0.0969,0,0.0994,0.0995,0.0995,0.1017,0.1017,0.1017,0.1018,0.1056,0.1056,0.1057,0,0,0,0,0,0,0,0,0,0,0,0,0,0.0948,0.0948,0.0969,0.0969,0.097,0.0994,0.0995,0.0995,0.1017,0.1017,0.1017,0.1018,0.1055,0.1056,0.1057,0,0,0,0,0,0,0,0,0,0,0,0,0,0.0963,0.0948,0.0969,0.0984,0.0986,0.0994,0.0995,0.0995,0.1016,0.1017,0.1017,0.1018,0.1055,0.1056,0.1057,0.1054,0,0,0.106,0.1061,0,0,0,0,0,0,0,0,0.0962,0.0964,0.0982,0.0983,0.0985,0.1004,0.1001,0.1016,0.1016,0.1004,0.1018,0.1018,0.104,0.1042,0.1044,0.1056,0.1058,0.1061,0.1061,0.1062,0.1062,0,0,0,0,0,0,0,0.0961,0.0963,0.0978,0.0982,0.0984,0.0993,0.0995,0.1004,0.1018,0.1005,0.1007,0.1011,0.1041,0.1043,0.1045,0.1058,0.1061,0.1062,0.1062,0.1063,0.1136,0.1137,0,0,0,0,0,0,0.0959,0.0962,0.0978,0.0979,0.0975,0.0993,0.0996,0.0996,0.1018,0.1022,0.101,0.1012,0.1041,0.1044,0.1047,0.1102,0.1062,0.1063,0.1063,0.1135,0.1136,0.1138,0,0,0,0,0,0,0.0958,0.096,0.0977,0.0972,0.0975,0.0993,0.0994,0.0997,0.1024,0.1022,0.1026,0.1037,0.1042,0.1045,0.1072,0.1101,0.1063,0.1064,0.1133,0.1135,0.1137,0.1176,0,0,0,0,0,0,0.0957,0.0959,0.0971,0.0972,0.0975,0.0996,0.0993,0.0997,0.1024,0.1027,0.1046,0.1049,0.1042,0.107,0.1073,0.1102,0.1065,0.1131,0.1134,0.1136,0.1173,0.1179,0.1184,0,0,0,0,0,0.0956,0.0962,0.0971,0.0974,0.0987,0.0997,0.1,0.1014,0.1026,0.104,0.1052,0.1049,0.1088,0.1072,0.1075,0.1105,0.113,0.1133,0.1136,0.117,0.1178,0.1184,0,0,0,0,0,0,0.0959,0.0965,0.0975,0.0984,0.0999,0.1002,0.1018,0.1029,0.105,0.106,0.106,0.1063,0.1101,0.1097,0.108,0.1135,0.1111,0.1115,0.1136,0.1143,0.1149,0.115,0.1066,0,0,0,0,0,0.0966,0.0976,0.0983,0.0996,0.1004,0.1019,0.1031,0.1041,0.1053,0.1065,0.1079,0.1096,0.1111,0.1123,0.1136,0.1161,0.1161,0.1185,0.1191,0.1195,0.12,0.122,0.1227,0.1147,0.1147,0.1147,0,0,0.0972,0.0978,0.0985,0.0999,0.1013,0.1028,0.1028,0.1052,0.1071,0.1065,0.1105,0.1119,0.1124,0.1153,0.117,0.1156,0.122,0.1199,0.1203,0.1204,0.1224,0.1231,0.1238,0.1149,0.1149,0.1148,0,0,0.0981,0.0996,0.1006,0.1021,0.1045,0.1052,0.1066,0.1085,0.1104,0.1134,0.1141,0.1169,0.1194,0.1202,0.1208,0.1252,0.1251,0.1267,0.1294,0.1314,0.132,0.1326,0.1341,0.1347,0.1267,0.1267,0.1267,0,0.0994,0.1,0.1013,0.1028,0.1042,0.1067,0.1082,0.1103,0.1133,0.115,0.1155,0.1207,0.1214,0.1246,0.1264,0.1265,0.1276,0.1265,0.132,0.1326,0.1331,0.1345,0.1352,0.1269,0.1269,0.1269,0.1268,0,0.1001,0.1018,0.1028,0.1053,0.1073,0.1091,0.1116,0.1147,0.1174,0.1194,0.1244,0.1257,0.1287,0.1299,0.1295,0.1343,0.1339,0.1326,0.13,0.1341,0.1353,0.136,0.1272,0.1271,0.1271,0.127,0,0,0.0998,0.1025,0.1033,0.1046,0.1086,0.1099,0.1139,0.1172,0.1205,0.1245,0.1284,0.132,0.1343,0.1352,0.1361,0.1378,0.1426,0.1374,0.1374,0.1384,0.1475,0.1382,0.138,0.1426,0.1427,0.1428,0.147,0,0.1003,0.1024,0.104,0.1073,0.1084,0.1118,0.1154,0.1195,0.1234,0.1281,0.131,0.1357,0.1359,0.1386,0.1407,0.1424,0.1445,0.1416,0.1439,0.1439,0.1347,0.1384,0.1433,0.1475,0.1477,0.1478,0.1478,0,0.1001,0.1015,0.104,0.1076,0.1086,0.1118,0.1175,0.1211,0.1279,0.1313,0.1366,0.1397,0.1448,0.1437,0.149,0.1475,0.1485,0.1489,0.149,0.1392,0.1357,0.1426,0.149,0.1489,0.1488,0.1487,0.1487,0,0.098,0.1014,0.1032,0.1046,0.1095,0.1122,0.1159,0.1227,0.1265,0.1347,0.1386,0.1445,0.1488,0.151,0.1533,0.1521,0.1577,0.1555,0.1478,0.1471,0.1525,0.1518,0.1587,0.1587,0.1587,0.1587,0.1587,0,0.0964,0.0983,0.1029,0.104,0.1077,0.112,0.1175,0.1222,0.1297,0.1344,0.1412,0.1452,0.1511,0.1548,0.1553,0.1537,0.1597,0.1489,0.1477,0.1541,0.1536,0.153,0.1522,0.1589,0.1588,0.1588,0.1588,0,0.0937,0.0966,0.0991,0.1045,0.1069,0.1101,0.1181,0.1213,0.1299,0.1361,0.1393,0.1478,0.1524,0.1563,0.1602,0.1556,0.1551,0.153,0.1607,0.1597,0.1427,0.1422,0.1442,0.1439,0.1436,0.1434,0.1432,0,0.092,0.0931,0.0993,0.1012,0.1041,0.1095,0.1128,0.1212,0.1246,0.1361,0.1378,0.1461,0.1505,0.1487,0.1534,0.1536,0.1516,0.1502,0.1452,0.1427,0.1413,0.1412,0.141,0.1428,0.1428,0.1427,0.1426,0,0.0887,0.0921,0.0942,0.0982,0.1018,0.1047,0.1102,0.112,0.1211,0.13,0.1334,0.1357,0.1404,0.1428,0.1445,0.1442,0.1501,0.1475,0.148,0.1433,0.1411,0.14,0.1401,0.1418,0.1419,0.142,0.142,0,0.0869,0.0875,0.0909,0.0935,0.0977,0.098,0.1015,0.1047,0.1091,0.1214,0.1224,0.1308,0.1392,0.138,0.1394,0.1386,0.1358,0.1301,0.1314,0.1324,0.1265,0.1218,0.116,0,0,0,0,0,0.0841,0.0835,0.0854,0.0867,0.0904,0.0926,0.0985,0.102,0.111,0.1103,0.116,0.1197,0.1223,0.1268,0.1235,0.1337,0.1361,0.1292,0.1301,0.137,0.138,0.132,0,0,0,0,0,0,0.0818,0.0836,0.083,0.0806,0.0804,0.0827,0.086,0.0917,0.0918,0.1021,0.1043,0.1123,0.1168,0.1232,0.1214,0.1226,0.1205,0.1349,0.1346,0.1364,0.1373,0.1381,0.1323,0,0,0,0,0]},{"header":{"parameterUnit":"m.s-1","parameterCategory":2,"la1":30.2991,"la2":30.254,"lo1":-89.0895,"lo2":-89.0444,"dy":0.0017,"dx":0.0017,"nx":28,"ny":28,"refTime":"2024-12-20T09:00:00:Z","depth":"4","parameterNumber":3,"parameterNumberName":"V-component_of_CURRENTS"},"data":[0,0,0,0,0,0,0,0,0,0,0,0,0,0,0,0,0,0,0,0,0,0,0,0,0,0,0,0,0,0,0,0,0,0,0,0,0,0,0,0,0,0,0,0,0,0,0,0,0,0,0,0,0,0,0,0,0,0,0.0227,0.0227,0,0.0216,0.0215,0.0215,0.0209,0.0209,0.0208,0.0208,0.0192,0.0191,0.0191,0,0,0,0,0,0,0,0,0,0,0,0,0,0.0224,0.0224,0.0227,0.0227,0.0227,0.0216,0.0215,0.0215,0.0209,0.0209,0.0208,0.0208,0.0192,0.0191,0.0191,0,0,0,0,0,0,0,0,0,0,0,0,0,0.022,0.0224,0.0227,0.0222,0.0222,0.0216,0.0215,0.0215,0.0209,0.0209,0.0208,0.0208,0.0192,0.0191,0.0191,0.0187,0,0,0.0189,0.0188,0,0,0,0,0,0,0,0,0.022,0.022,0.0223,0.0223,0.0222,0.0214,0.0208,0.0206,0.0209,0.0214,0.0208,0.0208,0.0199,0.0197,0.0195,0.0186,0.0186,0.0189,0.0188,0.0188,0.0188,0,0,0,0,0,0,0,0.0221,0.022,0.0223,0.0223,0.0222,0.0214,0.0213,0.0207,0.0206,0.0213,0.0213,0.0211,0.0198,0.0196,0.0195,0.0185,0.0189,0.0188,0.0188,0.0188,0.017,0.017,0,0,0,0,0,0,0.0223,0.0221,0.0223,0.0222,0.0221,0.0214,0.0213,0.0216,0.0206,0.0205,0.0211,0.0211,0.0197,0.0196,0.0194,0.0199,0.0188,0.0187,0.0187,0.017,0.017,0.017,0,0,0,0,0,0,0.0223,0.0224,0.0223,0.0221,0.022,0.0214,0.0217,0.0216,0.0216,0.0205,0.0204,0.0213,0.0197,0.0195,0.0193,0.0198,0.0187,0.0187,0.017,0.017,0.017,0.0202,0,0,0,0,0,0,0.0223,0.0224,0.0229,0.0221,0.0221,0.0223,0.0217,0.0216,0.0215,0.0214,0.0206,0.0204,0.0197,0.0194,0.0193,0.0197,0.0186,0.017,0.017,0.017,0.0201,0.0203,0.0205,0,0,0,0,0,0.0223,0.0232,0.023,0.023,0.0227,0.0223,0.0222,0.0217,0.0215,0.0217,0.0212,0.0204,0.0192,0.0194,0.0192,0.0196,0.017,0.017,0.017,0.02,0.0203,0.0205,0,0,0,0,0,0,0.0232,0.0232,0.0229,0.0237,0.0231,0.0222,0.0226,0.0219,0.0217,0.0219,0.0207,0.0205,0.0203,0.0194,0.0196,0.0189,0.0178,0.0178,0.0202,0.0204,0.0206,0.0214,0.0186,0,0,0,0,0,0.0237,0.0244,0.0237,0.0243,0.0243,0.0234,0.0232,0.0229,0.0224,0.0223,0.0215,0.0206,0.02,0.0198,0.019,0.0189,0.0172,0.0188,0.019,0.0191,0.0195,0.017,0.017,0.0169,0.0169,0.0169,0,0,0.0242,0.0242,0.0246,0.0245,0.0242,0.0247,0.0233,0.0235,0.0238,0.0222,0.0225,0.0213,0.02,0.0199,0.0197,0.0194,0.0182,0.0191,0.0193,0.0196,0.017,0.017,0.017,0.0169,0.0169,0.0169,0,0,0.0255,0.0256,0.0266,0.0265,0.0263,0.0259,0.026,0.0253,0.0249,0.025,0.0237,0.0228,0.022,0.0211,0.0206,0.0211,0.0191,0.0207,0.0226,0.0202,0.0202,0.0202,0.018,0.0178,0.021,0.021,0.021,0,0.026,0.0274,0.0267,0.0276,0.0281,0.0266,0.0278,0.0272,0.0264,0.0264,0.0255,0.0238,0.0225,0.0223,0.0225,0.0216,0.02,0.0222,0.0205,0.0204,0.0203,0.0182,0.0179,0.0211,0.0211,0.0211,0.0211,0,0.028,0.0292,0.0298,0.0307,0.0309,0.0317,0.031,0.0307,0.0301,0.0296,0.0288,0.0267,0.0258,0.0249,0.0241,0.0231,0.0221,0.0209,0.0202,0.0206,0.0182,0.0179,0.0214,0.0213,0.0213,0.0212,0,0,0.0291,0.0309,0.0312,0.0326,0.0329,0.0335,0.0339,0.0341,0.035,0.0329,0.0333,0.0313,0.0299,0.0291,0.0272,0.0251,0.023,0.0233,0.0231,0.0217,0.0179,0.0168,0.0163,0.0216,0.0216,0.0216,0.0165,0,0.0309,0.0337,0.034,0.0367,0.0382,0.0375,0.0383,0.0382,0.0378,0.0376,0.0345,0.0343,0.0316,0.0314,0.0287,0.0246,0.0222,0.0245,0.0173,0.0171,0.0165,0.0159,0.0214,0.0162,0.0161,0.0161,0.016,0,0.0327,0.0346,0.0378,0.0405,0.0411,0.0424,0.044,0.0446,0.0437,0.0433,0.0418,0.0394,0.0364,0.0337,0.0266,0.0283,0.0235,0.0198,0.0195,0.0172,0.0153,0.0156,0.0153,0.0154,0.0154,0.0155,0.0155,0,0.0342,0.0373,0.0403,0.0412,0.0436,0.045,0.0463,0.0466,0.0481,0.0472,0.0477,0.0434,0.0415,0.0347,0.027,0.0268,0.0185,0.0172,0.0116,0.0115,0.0126,0.0127,0.0118,0.0118,0.0118,0.0118,0.0119,0,0.0359,0.0384,0.0416,0.0433,0.0472,0.0478,0.0518,0.0519,0.0531,0.0553,0.0512,0.0508,0.0416,0.0357,0.0281,0.0188,0.0191,0.0119,0.01,0.014,0.0143,0.0123,0.0125,0.0117,0.0117,0.0117,0.0118,0,0.0368,0.0388,0.0428,0.0465,0.0482,0.0511,0.056,0.0586,0.0591,0.0614,0.0612,0.0565,0.0488,0.039,0.0279,0.0209,0.0118,0.0084,0.0138,0.0124,0.0061,0.0065,0.0017,0.0016,0.0016,0.0015,0.0015,0,0.0375,0.0396,0.0455,0.0485,0.0507,0.0554,0.0587,0.0613,0.0643,0.0647,0.0655,0.0593,0.0546,0.0384,0.0278,0.0127,0.0103,0.0053,0.0051,0.0064,0.005,0.0055,0.0059,0.0014,0.0013,0.0013,0.0013,0,0.0388,0.0411,0.0445,0.051,0.0556,0.061,0.066,0.0684,0.0709,0.0713,0.0687,0.0602,0.0513,0.0385,0.0268,0.0159,0.0083,0.0045,0.0046,0.0044,0.0059,0.0047,0.0052,0.0011,0.0011,0.0011,0.0011,0,0.0399,0.0425,0.0474,0.0529,0.0588,0.0644,0.0674,0.0704,0.0729,0.0728,0.0716,0.0618,0.0564,0.0401,0.0294,0.0186,0.0154,0.0112,0.0108,0.0109,0.0148,0.0181,0.0154,0,0,0,0,0,0.0406,0.0436,0.0489,0.0552,0.0612,0.0651,0.071,0.0735,0.0756,0.074,0.073,0.0645,0.0483,0.0417,0.0306,0.0277,0.0135,0.0142,0.0084,-0.0003,0.0,0.0028,0,0,0,0,0,0,0.0411,0.0459,0.0485,0.0558,0.0605,0.0675,0.0716,0.0736,0.0729,0.0729,0.0648,0.0607,0.0455,0.0545,0.0301,0.0269,0.0213,0.007,0.0068,-0.0004,-0.0002,0.0001,0.003,0,0,0,0,0]}]]